QPF
0.01 0.02 0.02 0.02 0.01 0.01 0.01 0.00 0.01 0.01 0.01 0.01 0.01 0.01 0.02 0.02 0.02 0.03 0.02 0.02 0.04 0.05 0.06 0.07 0.07 0.06 0.04 0.03 0.03 0.05 0.05 0.06 0.06 0.05 0.04 0.04 0.02 0.03 0.04 0.04 0.06 0.07 0.07
0.01 0.00 0.01 0.02 0.01 0.01 0.01 0.01 0.01 0.01 0.01 0.01 0.01 0.01 0.02 0.02 0.02 0.03 0.03 0.03 0.04 0.05 0.05 0.06 0.07 0.07 0.05 0.05 0.05 0.05 0.05 0.05 0.06 0.06 0.05 0.03 0.03 0.03 0.04 0.04 0.04 0.05 0.05
0.00 0.00 0.00 0.01 0.01 0.01 0.01 0.01 0.01 0.01 0.01 0.01 0.01 0.01 0.02 0.02 0.02 0.03 0.04 0.03 0.04 0.06 0.08 0.08 0.08 0.09 0.08 0.06 0.05 0.05 0.05 0.04 0.05 0.06 0.05 0.03 0.03 0.04 0.03 0.03 0.03 0.03 0.03
0.00 0.00 0.00 0.01 0.01 0.01 0.01 0.01 0.01 0.01 0.01 0.01 0.01 0.01 0.01 0.02 0.03 0.04 0.03 0.03 0.04 0.06 0.09 0.09 0.10 0.10 0.07 0.05 0.06 0.06 0.04 0.03 0.04 0.05 0.05 0.04 0.03 0.03 0.03 0.03 0.03 0.02 0.02
0.00 0.00 0.00 0.01 0.01 0.01 0.01 0.01 0.01 0.01 0.01 0.01 0.01 0.02 0.02 0.02 0.03 0.04 0.04 0.03 0.04 0.06 0.06 0.08 0.08 0.09 0.08 0.07 0.07 0.06 0.05 0.04 0.05 0.06 0.05 0.06 0.05 0.03 0.03 0.03 0.04 0.03 0.03
0.00 0.00 0.00 0.00 0.01 0.01 0.01 0.01 0.01 0.01 0.02 0.03 0.02 0.02 0.02 0.02 0.03 0.05 0.04 0.04 0.04 0.05 0.06 0.06 0.06 0.06 0.06 0.07 0.07 0.07 0.06 0.06 0.06 0.06 0.05 0.05 0.05 0.06 0.06 0.05 0.03 0.03 0.03
0.00 0.00 0.00 0.00 0.01 0.01 0.01 0.01 0.01 0.01 0.03 0.05 0.04 0.03 0.03 0.03 0.03 0.03 0.03 0.03 0.04 0.05 0.06 0.06 0.06 0.05 0.05 0.05 0.07 0.06 0.06 0.06 0.06 0.06 0.04 0.04 0.06 0.09 0.08 0.07 0.07 0.06 0.04
0.00 0.00 0.00 0.00 0.01 0.01 0.01 0.02 0.02 0.02 0.04 0.06 0.06 0.05 0.04 0.03 0.03 0.03 0.03 0.03 0.04 0.05 0.06 0.06 0.06 0.05 0.05 0.05 0.06 0.05 0.04 0.05 0.07 0.06 0.05 0.05 0.06 0.07 0.06 0.07 0.09 0.06 0.04
0.00 0.00 0.00 0.00 0.01 0.01 0.01 0.02 0.03 0.03 0.06 0.09 0.10 0.06 0.05 0.04 0.03 0.05 0.05 0.04 0.04 0.05 0.05 0.06 0.04 0.05 0.05 0.06 0.07 0.04 0.03 0.04 0.05 0.05 0.04 0.04 0.05 0.06 0.05 0.06 0.07 0.06 0.05
0.00 0.00 0.00 0.00 0.00 0.00 0.01 0.02 0.03 0.05 0.04 0.04 0.09 0.07 0.05 0.04 0.04 0.05 0.04 0.04 0.05 0.05 0.06 0.05 0.04 0.05 0.06 0.05 0.05 0.04 0.05 0.05 0.04 0.05 0.05 0.05 0.05 0.05 0.05 0.05 0.06 0.07 0.06
0.00 0.00 0.01 0.01 0.01 0.00 0.00 0.00 0.01 0.02 0.02 0.04 0.09 0.06 0.03 0.04 0.05 0.04 0.03 0.04 0.04 0.05 0.05 0.06 0.05 0.05 0.06 0.06 0.06 0.07 0.07 0.06 0.06 0.05 0.06 0.06 0.06 0.06 0.05 0.05 0.04 0.05 0.04
0.00 0.01 0.01 0.01 0.01 0.01 0.00 0.01 0.02 0.04 0.03 0.03 0.04 0.03 0.03 0.04 0.05 0.05 0.05 0.04 0.03 0.03 0.04 0.05 0.05 0.06 0.05 0.06 0.06 0.06 0.06 0.06 0.07 0.08 0.09 0.10 0.10 0.08 0.07 0.05 0.05 0.05 0.05
0.01 0.01 0.01 0.01 0.00 0.00 0.01 0.01 0.02 0.02 0.01 0.01 0.01 0.01 0.01 0.01 0.02 0.02 0.01 0.01 0.02 0.03 0.03 0.04 0.05 0.04 0.03 0.03 0.04 0.03 0.03 0.04 0.05 0.06 0.10 0.14 0.15 0.13 0.10 0.08 0.06 0.05 0.05
0.01 0.01 0.00 0.01 0.01 0.01 0.01 0.01 0.01 0.01 0.01 0.01 0.00 0.01 0.01 0.01 0.01 0.01 0.01 0.01 0.02 0.02 0.02 0.03 0.03 0.03 0.02 0.02 0.03 0.03 0.03 0.03 0.05 0.07 0.09 0.13 0.13 0.11 0.09 0.07 0.06 0.06 0.06
0.01 0.01 0.01 0.01 0.01 0.01 0.01 0.01 0.01 0.01 0.00 0.00 0.00 0.00 0.00 0.01 0.01 0.01 0.02 0.03 0.03 0.03 0.04 0.03 0.02 0.03 0.03 0.02 0.02 0.02 0.02 0.04 0.05 0.05 0.07 0.09 0.06 0.06 0.07 0.07 0.07 0.08 0.07
0.01 0.01 0.01 0.01 0.01 0.01 0.01 0.01 0.01 0.01 0.00 0.00 0.00 0.00 0.01 0.01 0.02 0.03 0.03 0.04 0.06 0.06 0.07 0.04 0.03 0.03 0.02 0.02 0.03 0.02 0.02 0.02 0.03 0.03 0.02 0.02 0.01 0.02 0.03 0.03 0.05 0.07 0.07
0.02 0.01 0.01 0.01 0.01 0.01 0.01 0.01 0.01 0.01 0.01 0.00 0.00 0.00 0.01 0.02 0.02 0.03 0.04 0.06 0.06 0.05 0.04 0.03 0.03 0.02 0.02 0.02 0.02 0.02 0.02 0.02 0.01 0.01 0.02 0.01 0.01 0.02 0.02 0.03 0.04 0.04 0.05
0.00 0.00 0.00 0.01 0.01 0.01 0.01 0.01 0.01 0.01 0.01 0.01 0.00 0.01 0.02 0.03 0.04 0.04 0.03 0.03 0.03 0.02 0.02 0.02 0.02 0.02 0.03 0.02 0.02 0.02 0.02 0.02 0.01 0.02 0.02 0.02 0.02 0.02 0.01 0.02 0.03 0.02 0.04
0.00 0.00 0.00 0.01 0.02 0.02 0.02 0.03 0.03 0.02 0.02 0.02 0.01 0.01 0.02 0.04 0.05 0.05 0.05 0.04 0.04 0.03 0.02 0.02 0.02 0.02 0.02 0.03 0.03 0.03 0.02 0.02 0.02 0.03 0.04 0.03 0.02 0.02 0.02 0.02 0.03 0.03 0.04
0.01 0.01 0.03 0.03 0.04 0.06 0.05 0.05 0.04 0.03 0.02 0.02 0.02 0.03 0.04 0.04 0.05 0.06 0.08 0.08 0.08 0.06 0.02 0.02 0.02 0.02 0.02 0.03 0.04 0.04 0.03 0.03 0.03 0.03 0.05 0.06 0.04 0.02 0.01 0.01 0.01 0.02 0.04
0.01 0.02 0.04 0.06 0.09 0.12 0.09 0.06 0.04 0.03 0.02 0.03 0.04 0.03 0.03 0.02 0.03 0.04 0.04 0.04 0.04 0.03 0.02 0.02 0.02 0.02 0.02 0.03 0.04 0.04 0.03 0.03 0.04 0.06 0.06 0.05 0.03 0.02 0.02 0.02 0.01 0.01 0.02
0.02 0.02 0.04 0.04 0.07 0.13 0.07 0.04 0.03 0.03 0.03 0.03 0.03 0.03 0.02 0.02 0.03 0.03 0.02 0.02 0.03 0.02 0.02 0.03 0.02 0.01 0.02 0.02 0.02 0.04 0.06 0.06 0.05 0.06 0.07 0.07 0.06 0.05 0.03 0.03 0.03 0.03 0.02
0.04 0.04 0.03 0.03 0.05 0.07 0.04 0.04 0.03 0.03 0.03 0.02 0.02 0.01 0.01 0.02 0.02 0.02 0.02 0.01 0.01 0.02 0.02 0.02 0.01 0.01 0.01 0.01 0.02 0.03 0.06 0.08 0.07 0.05 0.04 0.06 0.06 0.05 0.04 0.04 0.03 0.03 0.02
0.07 0.07 0.07 0.05 0.04 0.04 0.04 0.04 0.04 0.04 0.03 0.02 0.01 0.01 0.01 0.01 0.01 0.01 0.01 0.01 0.01 0.01 0.01 0.01 0.01 0.01 0.00 0.00 0.01 0.02 0.04 0.06 0.10 0.09 0.06 0.05 0.04 0.04 0.03 0.03 0.03 0.02 0.01
0.06 0.05 0.06 0.05 0.04 0.04 0.05 0.05 0.05 0.04 0.03 0.02 0.02 0.01 0.01 0.02 0.02 0.01 0.01 0.01 0.01 0.01 0.02 0.03 0.02 0.01 0.00 0.00 0.00 0.01 0.01 0.02 0.05 0.05 0.03 0.03 0.03 0.02 0.01 0.01 0.01 0.01 0.01
0.05 0.05 0.05 0.04 0.04 0.03 0.04 0.04 0.04 0.03 0.02 0.02 0.02 0.02 0.01 0.01 0.01 0.00 0.00 0.01 0.02 0.03 0.03 0.03 0.03 0.02 0.01 0.01 0.01 0.01 0.01 0.01 0.01 0.01 0.01 0.01 0.01 0.01 0.01 0.01 0.01 0.00 0.00
MSLP
1016.50 1016.83 1017.09 1017.24 1017.27 1017.17 1016.98 1016.74 1016.48 1016.24 1016.06 1015.95 1015.91 1015.92 1015.98 1016.06 1016.14 1016.22 1016.29 1016.36 1016.43 1016.51 1016.60 1016.70 1016.78 1016.86 1016.90 1016.90 1016.86 1016.76 1016.62 1016.46 1016.28 1016.11 1015.97 1015.84 1015.74 1015.65 1015.56 1015.45 1015.31 1015.15 1014.97
1016.77 1017.16 1017.48 1017.66 1017.70 1017.59 1017.38 1017.10 1016.82 1016.59 1016.43 1016.35 1016.36 1016.42 1016.50 1016.59 1016.65 1016.69 1016.70 1016.69 1016.69 1016.71 1016.75 1016.82 1016.89 1016.96 1017.00 1016.98 1016.92 1016.80 1016.64 1016.46 1016.29 1016.14 1016.04 1015.97 1015.94 1015.92 1015.88 1015.80 1015.66 1015.45 1015.19
1017.02 1017.47 1017.83 1018.06 1018.12 1018.02 1017.79 1017.51 1017.23 1017.01 1016.88 1016.84 1016.90 1017.00 1017.11 1017.20 1017.24 1017.23 1017.18 1017.10 1017.02 1016.98 1016.97 1017.00 1017.05 1017.10 1017.13 1017.10 1017.01 1016.87 1016.69 1016.49 1016.32 1016.20 1016.14 1016.14 1016.19 1016.25 1016.29 1016.27 1016.16 1015.95 1015.65
1017.24 1017.74 1018.15 1018.42 1018.51 1018.43 1018.22 1017.94 1017.67 1017.47 1017.37 1017.38 1017.47 1017.62 1017.75 1017.85 1017.87 1017.82 1017.71 1017.56 1017.42 1017.31 1017.26 1017.26 1017.29 1017.32 1017.33 1017.29 1017.18 1017.01 1016.80 1016.59 1016.41 1016.30 1016.27 1016.32 1016.44 1016.59 1016.72 1016.77 1016.73 1016.56 1016.27
1017.42 1017.96 1018.43 1018.75 1018.88 1018.83 1018.63 1018.37 1018.11 1017.93 1017.86 1017.90 1018.03 1018.21 1018.38 1018.48 1018.49 1018.42 1018.26 1018.07 1017.88 1017.73 1017.63 1017.60 1017.62 1017.64 1017.63 1017.58 1017.45 1017.26 1017.02 1016.78 1016.58 1016.45 1016.43 1016.51 1016.68 1016.89 1017.10 1017.24 1017.28 1017.20 1016.98
1017.55 1018.14 1018.67 1019.05 1019.22 1019.21 1019.04 1018.79 1018.55 1018.38 1018.33 1018.40 1018.56 1018.76 1018.95 1019.07 1019.09 1019.00 1018.83 1018.61 1018.39 1018.21 1018.10 1018.05 1018.04 1018.06 1018.05 1017.98 1017.84 1017.62 1017.36 1017.08 1016.84 1016.68 1016.63 1016.70 1016.88 1017.12 1017.38 1017.61 1017.75 1017.78 1017.68
1017.65 1018.29 1018.88 1019.32 1019.55 1019.57 1019.43 1019.21 1018.98 1018.82 1018.78 1018.86 1019.03 1019.26 1019.47 1019.61 1019.65 1019.57 1019.40 1019.18 1018.95 1018.76 1018.63 1018.58 1018.57 1018.58 1018.56 1018.49 1018.34 1018.11 1017.81 1017.49 1017.20 1016.98 1016.87 1016.89 1017.03 1017.27 1017.56 1017.85 1018.09 1018.24 1018.29
1017.72 1018.42 1019.07 1019.56 1019.85 1019.92 1019.82 1019.61 1019.39 1019.24 1019.20 1019.29 1019.47 1019.71 1019.95 1020.11 1020.18 1020.13 1019.98 1019.78 1019.56 1019.36 1019.23 1019.17 1019.15 1019.16 1019.15 1019.08 1018.93 1018.68 1018.36 1018.00 1017.65 1017.36 1017.17 1017.11 1017.19 1017.38 1017.67 1017.99 1018.31 1018.59 1018.79
1017.76 1018.51 1019.22 1019.78 1020.12 1020.23 1020.17 1019.99 1019.79 1019.65 1019.61 1019.70 1019.89 1020.15 1020.40 1020.60 1020.69 1020.68 1020.57 1020.39 1020.18 1020.00 1019.87 1019.80 1019.78 1019.78 1019.77 1019.71 1019.56 1019.31 1018.98 1018.59 1018.20 1017.84 1017.56 1017.41 1017.40 1017.52 1017.77 1018.10 1018.47 1018.85 1019.20
1017.76 1018.55 1019.31 1019.92 1020.31 1020.48 1020.46 1020.32 1020.15 1020.03 1020.01 1020.10 1020.30 1020.57 1020.85 1021.07 1021.20 1021.23 1021.15 1021.01 1020.82 1020.65 1020.51 1020.43 1020.40 1020.40 1020.39 1020.33 1020.19 1019.97 1019.64 1019.25 1018.82 1018.41 1018.07 1017.83 1017.72 1017.77 1017.96 1018.27 1018.67 1019.12 1019.58
1017.67 1018.50 1019.29 1019.94 1020.38 1020.61 1020.65 1020.57 1020.45 1020.37 1020.37 1020.49 1020.71 1020.99 1021.29 1021.54 1021.71 1021.77 1021.74 1021.62 1021.46 1021.29 1021.15 1021.05 1021.01 1020.99 1020.98 1020.93 1020.82 1020.62 1020.32 1019.95 1019.53 1019.10 1018.72 1018.42 1018.24 1018.21 1018.33 1018.61 1019.00 1019.47 1019.99
1017.49 1018.31 1019.12 1019.79 1020.28 1020.57 1020.69 1020.69 1020.64 1020.63 1020.69 1020.84 1021.08 1021.39 1021.70 1021.98 1022.19 1022.29 1022.29 1022.20 1022.06 1021.91 1021.76 1021.65 1021.59 1021.55 1021.53 1021.49 1021.41 1021.25 1021.01 1020.69 1020.31 1019.90 1019.51 1019.19 1018.96 1018.87 1018.93 1019.15 1019.50 1019.96 1020.49
1017.16 1017.96 1018.74 1019.43 1019.96 1020.32 1020.53 1020.64 1020.70 1020.77 1020.90 1021.11 1021.40 1021.73 1022.07 1022.38 1022.61 1022.75 1022.79 1022.74 1022.63 1022.49 1022.34 1022.22 1022.13 1022.08 1022.06 1022.03 1021.97 1021.86 1021.68 1021.43 1021.12 1020.77 1020.42 1020.10 1019.86 1019.73 1019.74 1019.89 1020.18 1020.59 1021.08
1016.68 1017.41 1018.15 1018.82 1019.39 1019.83 1020.15 1020.39 1020.57 1020.76 1020.99 1021.27 1021.61 1021.97 1022.34 1022.68 1022.95 1023.13 1023.22 1023.21 1023.14 1023.02 1022.89 1022.76 1022.66 1022.60 1022.56 1022.53 1022.50 1022.43 1022.32 1022.15 1021.93 1021.66 1021.38 1021.10 1020.87 1020.73 1020.69 1020.78 1020.99 1021.31 1021.72
1016.04 1016.66 1017.33 1017.99 1018.59 1019.12 1019.56 1019.94 1020.27 1020.59 1020.93 1021.29 1021.68 1022.09 1022.49 1022.86 1023.16 1023.39 1023.53 1023.59 1023.57 1023.50 1023.39 1023.28 1023.18 1023.10 1023.05 1023.02 1023.00 1022.97 1022.92 1022.83 1022.70 1022.52 1022.31 1022.10 1021.90 1021.76 1021.69 1021.71 1021.84 1022.06 1022.36
1015.25 1015.75 1016.33 1016.97 1017.60 1018.21 1018.78 1019.31 1019.80 1020.26 1020.71 1021.16 1021.61 1022.06 1022.49 1022.89 1023.23 1023.52 1023.73 1023.86 1023.91 1023.90 1023.84 1023.76 1023.67 1023.59 1023.52 1023.49 1023.47 1023.46 1023.45 1023.43 1023.37 1023.28 1023.15 1023.00 1022.85 1022.72 1022.62 1022.60 1022.64 1022.76 1022.95
1014.37 1014.72 1015.22 1015.82 1016.49 1017.19 1017.89 1018.56 1019.19 1019.79 1020.35 1020.89 1021.39 1021.87 1022.34 1022.77 1023.16 1023.50 1023.79 1024.00 1024.15 1024.22 1024.23 1024.19 1024.12 1024.04 1023.97 1023.92 1023.90 1023.90 1023.91 1023.92 1023.92 1023.89 1023.84 1023.75 1023.64 1023.53 1023.42 1023.35 1023.33 1023.35 1023.43
1013.45 1013.66 1014.08 1014.65 1015.35 1016.12 1016.94 1017.74 1018.51 1019.23 1019.89 1020.49 1021.04 1021.56 1022.04 1022.51 1022.95 1023.35 1023.72 1024.03 1024.27 1024.43 1024.53 1024.55 1024.52 1024.45 1024.38 1024.32 1024.27 1024.26 1024.27 1024.30 1024.34 1024.35 1024.35 1024.31 1024.24 1024.15 1024.04 1023.94 1023.86 1023.82 1023.80
1012.55 1012.65 1012.98 1013.53 1014.26 1015.10 1016.00 1016.92 1017.80 1018.62 1019.36 1020.01 1020.60 1021.14 1021.65 1022.15 1022.63 1023.10 1023.54 1023.94 1024.28 1024.54 1024.72 1024.81 1024.82 1024.79 1024.72 1024.64 1024.58 1024.55 1024.55 1024.58 1024.63 1024.67 1024.70 1024.70 1024.66 1024.58 1024.49 1024.38 1024.27 1024.17 1024.10
1011.74 1011.74 1012.01 1012.54 1013.28 1014.17 1015.15 1016.15 1017.11 1018.00 1018.79 1019.49 1020.11 1020.67 1021.20 1021.72 1022.24 1022.77 1023.28 1023.77 1024.19 1024.55 1024.81 1024.96 1025.03 1025.02 1024.97 1024.89 1024.82 1024.77 1024.76 1024.79 1024.84 1024.89 1024.94 1024.96 1024.94 1024.89 1024.80 1024.69 1024.57 1024.46 1024.36
1011.05 1010.97 1011.20 1011.70 1012.45 1013.36 1014.38 1015.43 1016.45 1017.38 1018.22 1018.95 1019.59 1020.18 1020.73 1021.27 1021.83 1022.40 1022.97 1023.52 1024.03 1024.45 1024.78 1025.00 1025.11 1025.14 1025.11 1025.04 1024.98 1024.93 1024.91 1024.94 1024.98 1025.05 1025.10 1025.14 1025.14 1025.11 1025.04 1024.94 1024.83 1024.72 1024.62
1010.51 1010.39 1010.57 1011.05 1011.78 1012.69 1013.72 1014.78 1015.82 1016.78 1017.64 1018.40 1019.07 1019.68 1020.26 1020.83 1021.42 1022.03 1022.64 1023.24 1023.79 1024.27 1024.65 1024.91 1025.07 1025.14 1025.14 1025.10 1025.06 1025.02 1025.02 1025.05 1025.10 1025.17 1025.24 1025.29 1025.30 1025.28 1025.23 1025.16 1025.07 1024.98 1024.90
1010.14 1009.97 1010.12 1010.56 1011.25 1012.13 1013.14 1014.19 1015.22 1016.19 1017.07 1017.85 1018.55 1019.19 1019.80 1020.41 1021.03 1021.67 1022.31 1022.93 1023.51 1024.01 1024.42 1024.72 1024.92 1025.03 1025.07 1025.07 1025.06 1025.06 1025.08 1025.13 1025.20 1025.28 1025.36 1025.42 1025.44 1025.44 1025.41 1025.35 1025.28 1025.22 1025.17
1009.93 1009.73 1009.83 1010.22 1010.85 1011.67 1012.62 1013.62 1014.63 1015.59 1016.48 1017.28 1018.02 1018.70 1019.36 1020.01 1020.66 1021.32 1021.98 1022.61 1023.19 1023.70 1024.12 1024.44 1024.67 1024.82 1024.90 1024.95 1024.99 1025.04 1025.10 1025.19 1025.28 1025.38 1025.46 1025.53 1025.56 1025.57 1025.54 1025.50 1025.46 1025.43 1025.41
1009.86 1009.64 1009.69 1010.00 1010.54 1011.28 1012.14 1013.08 1014.04 1014.98 1015.86 1016.70 1017.47 1018.21 1018.92 1019.62 1020.30 1020.98 1021.65 1022.27 1022.85 1023.35 1023.77 1024.10 1024.34 1024.52 1024.66 1024.76 1024.86 1024.96 1025.08 1025.20 1025.33 1025.44 1025.54 1025.61 1025.64 1025.65 1025.63 1025.60 1025.57 1025.56 1025.57
1009.93 1009.68 1009.66 1009.89 1010.33 1010.95 1011.71 1012.55 1013.45 1014.35 1015.23 1016.09 1016.91 1017.70 1018.47 1019.22 1019.94 1020.64 1021.31 1021.93 1022.48 1022.97 1023.38 1023.71 1023.97 1024.18 1024.36 1024.52 1024.68 1024.84 1025.01 1025.17 1025.33 1025.46 1025.57 1025.64 1025.67 1025.67 1025.65 1025.62 1025.60 1025.61 1025.63
Thickness
5792 5791 5788 5786 5781 5777 5774 5770 5767 5765 5762 5759 5756 5754 5752 5753 5752 5752 5751 5750 5749 5747 5746 5745 5744 5743 5742 5742 5741 5740 5738 5736 5736 5733 5730 5731 5733 5732 5731 5730 5729 5728 5728
5792 5791 5789 5787 5783 5779 5776 5773 5770 5767 5765 5762 5760 5758 5756 5755 5754 5753 5752 5751 5750 5749 5748 5746 5745 5744 5743 5742 5741 5739 5737 5735 5735 5731 5726 5723 5725 5728 5729 5728 5727 5726 5725
5795 5793 5791 5788 5785 5782 5780 5777 5773 5770 5768 5765 5762 5760 5757 5755 5753 5752 5751 5751 5751 5750 5749 5748 5746 5745 5743 5742 5741 5740 5737 5734 5734 5733 5729 5723 5719 5721 5723 5724 5724 5723 5722
5801 5797 5795 5791 5789 5787 5784 5780 5777 5773 5770 5767 5763 5759 5755 5752 5752 5751 5751 5751 5750 5749 5749 5748 5747 5745 5744 5742 5742 5740 5739 5736 5733 5732 5732 5730 5727 5720 5716 5718 5719 5719 5718
5807 5803 5801 5798 5795 5792 5788 5784 5779 5775 5772 5769 5765 5761 5758 5756 5754 5752 5751 5750 5750 5749 5748 5748 5747 5745 5744 5743 5742 5741 5739 5737 5734 5732 5730 5728 5726 5723 5717 5713 5713 5714 5714
5813 5809 5806 5802 5797 5794 5790 5785 5780 5776 5773 5770 5767 5763 5760 5757 5754 5752 5750 5750 5750 5749 5748 5747 5746 5745 5744 5743 5742 5741 5739 5737 5735 5733 5731 5728 5725 5721 5718 5714 5711 5709 5709
5816 5811 5806 5802 5799 5795 5791 5787 5781 5777 5774 5771 5767 5765 5762 5759 5755 5753 5751 5749 5748 5747 5747 5747 5746 5744 5743 5742 5741 5739 5737 5736 5734 5732 5730 5728 5727 5724 5720 5715 5710 5707 5705
5818 5814 5811 5807 5803 5799 5794 5789 5784 5779 5776 5772 5768 5765 5763 5760 5757 5754 5752 5749 5748 5747 5747 5746 5744 5743 5742 5741 5739 5737 5736 5734 5732 5731 5729 5727 5726 5723 5720 5716 5710 5704 5700
5820 5817 5814 5810 5805 5801 5796 5792 5786 5781 5777 5773 5770 5766 5763 5760 5757 5754 5752 5750 5748 5747 5745 5744 5742 5740 5739 5738 5736 5734 5732 5731 5730 5728 5727 5725 5724 5721 5719 5716 5713 5706 5698
5820 5817 5814 5811 5807 5803 5798 5793 5788 5783 5779 5775 5770 5767 5763 5760 5757 5754 5751 5748 5746 5744 5742 5740 5738 5736 5735 5734 5732 5730 5729 5728 5726 5725 5724 5722 5721 5718 5716 5713 5710 5707 5702
5819 5817 5815 5812 5807 5803 5798 5792 5787 5782 5777 5774 5769 5765 5762 5760 5756 5753 5749 5746 5744 5741 5739 5736 5734 5732 5731 5730 5729 5727 5726 5724 5723 5722 5720 5718 5717 5715 5712 5709 5705 5702 5699
5818 5817 5814 5810 5805 5800 5796 5791 5787 5782 5777 5773 5769 5764 5761 5758 5754 5751 5748 5745 5741 5738 5735 5733 5731 5729 5728 5726 5725 5723 5722 5721 5719 5717 5716 5714 5713 5710 5707 5704 5701 5697 5694
5814 5812 5810 5807 5803 5799 5794 5790 5786 5782 5777 5773 5768 5763 5759 5756 5753 5749 5746 5743 5739 5735 5733 5730 5728 5726 5724 5723 5721 5720 5718 5717 5715 5714 5712 5710 5708 5705 5702 5700 5697 5693 5690
5810 5808 5805 5803 5801 5798 5793 5789 5785 5781 5776 5771 5766 5761 5758 5754 5751 5747 5743 5740 5736 5733 5730 5727 5725 5723 5721 5720 5718 5716 5714 5712 5711 5709 5707 5705 5703 5700 5698 5695 5692 5688 5684
5806 5805 5802 5800 5798 5795 5791 5787 5783 5779 5774 5769 5763 5759 5755 5752 5748 5744 5740 5737 5733 5730 5727 5724 5721 5720 5718 5716 5714 5712 5710 5708 5706 5704 5702 5700 5699 5696 5694 5691 5687 5684 5679
5803 5802 5800 5797 5795 5793 5789 5785 5780 5776 5771 5766 5761 5757 5752 5748 5744 5740 5736 5733 5729 5726 5723 5720 5717 5715 5714 5712 5710 5708 5706 5703 5701 5698 5696 5695 5693 5691 5688 5685 5682 5679 5675
5801 5799 5798 5796 5793 5791 5787 5782 5778 5773 5768 5763 5758 5753 5749 5744 5740 5737 5732 5728 5725 5722 5719 5716 5713 5710 5708 5707 5705 5703 5701 5698 5695 5693 5690 5688 5686 5684 5681 5678 5675 5671 5668
5799 5798 5795 5793 5791 5788 5785 5780 5774 5769 5764 5759 5754 5749 5745 5740 5736 5731 5727 5723 5720 5717 5713 5711 5709 5707 5704 5702 5700 5698 5695 5692 5689 5687 5684 5681 5679 5677 5675 5672 5667 5664 5661
5798 5795 5793 5791 5788 5784 5781 5776 5769 5764 5759 5754 5750 5746 5742 5737 5732 5727 5723 5719 5715 5712 5708 5706 5704 5702 5699 5697 5695 5692 5689 5685 5683 5680 5678 5676 5674 5671 5668 5665 5661 5657 5653
5793 5791 5789 5786 5782 5779 5776 5771 5765 5759 5755 5751 5748 5744 5739 5734 5729 5725 5720 5715 5711 5707 5704 5701 5698 5696 5694 5692 5690 5687 5683 5679 5676 5674 5671 5669 5667 5664 5661 5658 5654 5650 5646
5789 5787 5784 5780 5777 5775 5770 5763 5761 5757 5754 5750 5744 5740 5735 5731 5726 5721 5716 5711 5707 5702 5698 5695 5693 5691 5688 5686 5683 5681 5677 5673 5669 5667 5664 5661 5659 5656 5654 5650 5647 5643 5639
5783 5781 5777 5774 5772 5770 5765 5757 5756 5755 5750 5745 5739 5734 5730 5727 5722 5717 5711 5707 5702 5697 5693 5690 5687 5684 5682 5680 5677 5674 5671 5668 5664 5661 5658 5655 5652 5649 5646 5643 5639 5636 5633
5776 5773 5770 5767 5765 5763 5760 5754 5752 5749 5744 5738 5733 5729 5725 5721 5717 5712 5707 5702 5698 5693 5689 5685 5682 5678 5676 5674 5672 5669 5665 5662 5659 5656 5652 5649 5646 5642 5638 5635 5631 5628 5625
5768 5766 5761 5758 5756 5755 5753 5750 5746 5742 5737 5732 5727 5723 5719 5715 5711 5706 5703 5699 5694 5689 5685 5681 5677 5674 5671 5669 5666 5663 5660 5656 5652 5649 5646 5642 5639 5635 5631 5627 5624 5621 5618
5760 5759 5755 5751 5749 5747 5745 5744 5741 5737 5731 5726 5721 5717 5714 5710 5705 5701 5697 5694 5691 5688 5684 5680 5675 5671 5668 5665 5662 5658 5654 5651 5647 5643 5640 5636 5632 5628 5624 5620 5616 5612 5609
5752 5750 5748 5745 5743 5741 5738 5737 5734 5732 5727 5721 5716 5712 5709 5705 5701 5696 5691 5688 5686 5683 5680 5676 5672 5668 5665 5660 5657 5653 5649 5645 5642 5638 5634 5629 5625 5622 5618 5614 5609 5605 5602